User: anonymous   Login
Location: *
(34.8620°S, 39.3380°E)
Time: 14:27:06
(UTC+00:00)
Language:

H-2A R/B - Orbit

View from above orbital plane
View from above orbital plane
View from above satellite
View from above satellite

Ground track
Ground track

The orbit data is extracted from the following two-line orbital elements,

1 38341U 12025E   21290.81736185  .00000318  00000-0  44448-4 0  9992
2 38341  98.5249 124.6900 0056395 106.1515 254.5914 14.84298264509650
Epoch (UTC): 17 October 2021 19:37:00
Eccentricity: 0.0056395
inclination: 98.5249°
perigee height: 576 km
apogee height: 655 km
right ascension of ascending node: 124.6900°
argument of perigee: 106.1515°
revolutions per day: 14.84298264
mean anomaly at epoch: 254.5914°
orbit number at epoch: 50965

The dashed part of the orbit path shows where the satellite is in the earth's shadow,  

DLR